Location: Barnston
(51.8500°N, 0.4000°E)
Time: 09:47:32
(UTC+00:00)

Meteor 2-6 Rocket - Pass Details

Date: 26 September 2023
Orbit: 806 x 913 km, 81.3° (Epoch: 09 December)

Event Time Altitude Azimuth Distance (km) Brightness Sun altitude
Rises 04:46:15 0° 200° (SSW) 3,340 7.0 -10.7°
Reaches altitude 10° 04:48:41 10° 203° (SSW) 2,402 6.2 -10.3°
Maximum altitude 04:54:03 66° 286° (WNW) 885 4.1 -9.5°
Drops below altitude 10° 04:59:26 10° 8° (N) 2,401 6.8 -8.7°
Sets 05:01:51 0° 12° (NNE) 3,339 7.6 -8.3°
